Flag for Germany Weather past 2 weeks in Bramsche, Lower Saxony, Germany

Now
54 °F

Passing clouds.


Feels Like: 54 °F
Forecast: 46 / 57 °F
Wind: 3 mph from South

Location: Muenster / Osnabrueck

Current Time: Apr 26, 2015 at 12:21:58 AM

Latest Report: Apr 25, 2015 at 11:00 PM


Visibility: 9 mi

Pressure: 29.76 "Hg

Humidity: 88%

Dew point: 51 °F

Location of BramscheLocation

Historic Weather in Bramsche — Graph

°F

Bramsche temperature yesterday

Maximum temperature yesterday: 60 °F (at 6:00 PM)
Minimum temperature yesterday: 50 °F (at 3:00 AM)
Average temperature yesterday: 55 °F

Past Weeks' High & Low Weather Summary

 TemperatureHumidityPressure
High73 °F (Apr 15, 4:00 PM)100% (Apr 23, 7:00 AM)30.48 "Hg (Apr 23, 7:00 AM)
Low32 °F (Apr 18, 6:00 AM)29% (Apr 21, 4:00 PM)29.72 "Hg (Apr 25, 6:00 PM)
Average51 °F66%30.18 "Hg
* Reported Apr 10 10:00 PM — Apr 25 10:00 PM, Bramsche, Weather by CustomWeather, © 2015

Note: Actual official high and low records may vary slightly from our data, if they occured in-between our weather recording intervals... More about our weather records

Advertising

Bramsche weather history for previous 24 hours

 ConditionsComfort  
Time TempWeatherWind HumidityBarometerVisibility
10:00 PM
Sat, Apr 25
56 °FPassing clouds.2 mph84%29.76 "Hg9 mi
9:00 PM56 °FOvercast.3 mph86%29.75 "Hg7 mi
8:00 PM57 °FOvercast.5 mph80%29.73 "Hg12 mi
7:00 PM58 °FOvercast.6 mph77%29.73 "Hg7 mi
6:00 PM60 °FOvercast.5 mph65%29.72 "Hg9 mi
5:00 PM60 °FOvercast.5 mph67%29.73 "Hg12 mi
4:00 PM59 °FLight rain. Overcast.3 mph69%29.74 "Hg9 mi
3:00 PM58 °FLight rain. Overcast.5 mph75%29.75 "Hg9 mi
2:00 PM57 °FLight rain. Overcast.6 mph74%29.76 "Hg9 mi
1:00 PM55 °FLight rain. Overcast.5 mph79%29.77 "Hg9 mi
12:00 PM53 °FOvercast.3 mph87%29.77 "Hg5 mi
11:00 AM53 °FLight rain. Overcast.6 mph88%29.78 "Hg2 mi
10:00 AM54 °FLight rain. Overcast.2 mph78%29.77 "Hg4 mi
9:00 AM54 °FLight rain. Overcast.3 mph77%29.77 "Hg4 mi
8:00 AM54 °FOvercast.3 mph71%29.78 "Hg3 mi
7:00 AM54 °FLight rain. Overcast.2 mph72%29.76 "Hg4 mi
6:00 AM54 °FOvercast.2 mph70%29.76 "Hg5 mi
5:00 AM54 °FOvercast.2 mph68%29.76 "Hg6 mi
3:00 AM50 °FOvercast.1 mph70%29.77 "Hg6 mi
1:00 AM51 °FPassing clouds.2 mph70%29.78 "Hg6 mi
12:00 AM52 °FPassing clouds.1 mph69%29.80 "Hg7 mi
Weather by CustomWeather, © 2015

See weather overviewHow to use our weather pages